Location: Centreville
(38.8333°N, 77.4295°W)
Time: 08:44:58
(UTC-05:00)

DX 1 - Visible Passes

Search period start: 15 November 2019 00:00
Search period end: 25 November 2019 00:00
Orbit: 618 x 632 km, 98.4° (Epoch: 15 November)

Date Brightness Start Highest point End Pass type
(mag) Time Alt. Az. Time Alt. Az. Time Alt. Az.
15 Nov ? 17:37:58 10° N 17:41:52 34° WNW 17:45:46 10° SW visible
16 Nov ? 17:57:15 10° NNW 18:00:34 22° WNW 18:03:52 10° WSW visible
17 Nov ? 18:16:54 10° NNW 18:19:13 14° WNW 18:21:31 10° W visible
19 Nov ? 17:16:52 10° N 17:21:08 60° WNW 17:25:24 10° SSW visible
20 Nov ? 17:35:54 10° N 17:39:53 37° WNW 17:43:52 10° SW visible
21 Nov ? 17:55:08 10° NNW 17:58:35 24° WNW 18:02:03 10° WSW visible
22 Nov ? 18:14:41 10° NNW 18:17:14 16° WNW 18:19:47 10° W visible
24 Nov ? 17:14:50 10° N 17:19:08 66° WNW 17:23:26 10° SSW visible
